Loading…
Loading…
Loading…
Loading…
Loading parcel record…
Hopewell Twp, NJ·Mercer County
Owner email, phone, and authorized agent are available on Pro.
| Date | Price | Book / Page | Verified by |
|---|---|---|---|
| 12/1/1969 | $52,500 | 00000 / 00000 | Tax record (last sale) |
Activity captured from the county clerk's daily feed. Includes deeds, mortgages, and other recorded filings.
| Date | Type | Grantor | Grantee | Book / Page | Instrument |
|---|---|---|---|---|---|
| 2026-02-19 | TAX SALE CERTIFICATE | — |
| — |
| 12025 / 1206 |
| 2026006815 |
| 2025-03-10 | CONSTRUCTION LIEN CLAIM | — | — | 63 / 1779 | 2025009504 |
| 2024-01-29 | TAX SALE CERTIFICATE | — | — | 11856 / 402 | 2024003150 |
| 2023-04-14 | DEED | — | — | 6520 / 989 | 2023013860 |
| 2023-02-14 | DEED | — | — | 6514 / 1832 | 2023005313 |
| 2022-07-19 | DEED | — | — | 6492 / 1597 | 2022034250 |
| 2021-08-11 | DEED | — | — | 6452 / 118 | 2021048605 |
| 2021-04-29 | MORTGAGE | — | — | 11609 / 426 | 2021026737 |
| 2021-03-22 | DEED | — | — | 6435 / 960 | 2021017752 |
| 2020-12-23 | DISCHARGE OF MORTGAGE | — | — | 1608 / 632 | 2020060307 |
| 2020-12-23 | DISCHARGE OF MORTGAGE | — | — | 1608 / 629 | 2020060304 |
| 2020-08-19 | MORTGAGE | — | — | 11513 / 125 | 2020035313 |
| 2020-08-19 | DEED | — | — | 6411 / 1203 | 2020035312 |
| 2020-03-11 | DEED | — | — | 6399 / 1112 | 2020012093 |
| 2020-02-10 | ASSIGNMENT OF RENTS/LEASES | — | — | 11467 / 227 | 2020006733 |
| 2020-02-10 | DEED | — | — | 6396 / 1408 | 2020006731 |
| 2020-02-10 | POWER OF ATTORNEY | — | — | 6396 / 1401 | 2020006730 |
| 2019-12-02 | DEED | — | — | 6389 / 187 | 2019051712 |
| 2019-11-13 | NOTICE OF SETTLEMENT | — | — | 1522 / 1018 | 2019049103 |
| 2019-08-06 | MORTGAGE | — | — | 11424 / 1951 | 2019033392 |
| 2019-08-06 | DEED | — | — | 6376 / 1120 | 2019033391 |
| 2019-01-10 | DEED | — | — | 6354 / 1289 | 2019001313 |
| 2018-09-11 | DEED | — | — | 6340 / 1579 | 2018039161 |
| 2018-08-01 | MISC DEED | — | — | 6335 / 1785 | 2018032181 |
| 2018-06-15 | DEED | — | — | 6330 / 1219 | 2018025498 |
| 2018-06-15 | POWER OF ATTORNEY | — | — | 6330 / 1217 | 2018025497 |
| 2018-05-18 | DEED | — | — | 6327 / 334 | 2018020509 |
| 2017-07-20 | DEED | — | — | 6293 / 452 | 2017033104 |
| 2017-03-24 | DEED | — | — | 6280 / 555 | 2017014298 |
| 2016-11-22 | DEED | — | — | 6268 / 1767 | 2016054784 |